Location: Fleischmann Planetarium and Science Center
(39.5456°N, 119.8190°W)
Time: 09:44:13
(UTC-07:00)

Daily predictions for brighter satellites

Satellite Brightness Start Highest point End
(mag) Time Altitude Azimuth Time Altitude Azimuth Time Altitude Azimuth
Cosmos 990 Rocket 4.0 20:39:06 10° S 20:44:16 72° ESE 20:49:29 10° NNE
Cosmos 1898 Rocket 4.0 20:39:39 10° SSW 20:44:54 70° WNW 20:50:14 10° NNE
Cosmos 1933 Rocket 3.6 20:42:57 10° S 20:47:17 86° W 20:51:39 10° N
Helios 1A 3.7 20:43:41 10° SE 20:47:31 37° ENE 20:51:24 10° N
Molniya-1 3.7 20:48:43 10° S 20:50:09 18° SE 20:51:26 10° ENE
CENTAUR R/B 3.1 20:45:23 10° S 20:50:31 32° ESE 20:56:11 10° NE
COSMOS 2455 3.0 20:46:03 10° S 20:51:52 55° ESE 20:57:44 10° NE
Cosmos 1862 Rocket 3.7 20:47:39 10° N 20:52:10 85° W 20:56:39 10° S
Shenzhou-11 Module 2.2 20:51:26 10° WNW 20:54:29 63° SSW 20:57:31 10° ESE
Cosmos 2369 Rocket 2.5 20:49:10 10° S 20:54:31 46° ESE 20:59:56 10° NE
Resurs 01 Rocket 2.5 20:50:59 10° S 20:55:18 52° W 20:59:39 10° NNW
Cosmos 1125 Rocket 4.5 20:51:01 10° SSE 20:55:20 27° E 20:59:39 10° NE
Milstar 3 4.5 20:43:44 10° SW 20:55:31 32° S 21:02:47 10° ESE
Cosmos 1606 4.5 20:53:53 10° NNE 20:56:20 16° ENE 20:58:47 10° ESE
Lacrosse 5 rocket 1.1 20:54:10 10° SSW 20:57:37 49° SE 21:01:08 10° NE
Cosmos 1346 Rocket 2.8 20:55:59 10° N 20:59:57 64° E 21:03:54 10° SSE
YAOGAN 6 3.0 20:58:57 10° SSE 21:02:30 46° ENE 21:06:03 10° N
Cosmos 1939 Rocket 2.9 21:02:21 10° SSE 21:06:30 82° ENE 21:10:38 10° N
Cosmos 1933 4.5 21:02:52 10° NNW 21:06:42 45° W 21:10:31 10° SSW
SL-19 R/B 4.5 21:07:26 10° SSE 21:13:09 90° NNW 21:19:19 10° NNW
GPS 2-04 Rocket1 2.9 21:10:09 10° WSW 21:13:45 45° S 21:16:29 15° ESE
Okean 1-7 3.6 21:11:54 10° N 21:16:07 42° ENE 21:19:40 14° SSE
ATLAS 5 CENTAUR R/B 3.4 21:12:06 10° NNW 21:17:32 35° NE 21:22:41 13° ESE
Meteor 1-29 2.9 21:18:10 10° NNE 21:21:39 63° E 21:25:06 10° S
Aureole 3 2.8 21:22:00 11° S 21:24:51 48° E 21:27:44 10° NNE
Cosmos 2142 Rocket 4.5 21:18:56 10° N 21:25:04 71° E 21:31:11 10° SSE
H-2A R/B 3.4 21:22:48 14° ESE 21:26:09 25° ENE 21:30:24 10° NNE
Cosmos 1703 Rocket 3.5 21:24:54 10° N 21:29:20 90° W 21:33:41 10° S
Cosmos 158 Rocket 4.4 21:24:51 10° N 21:29:29 41° ENE 21:32:34 19° SE
Cosmos 1408 2.9 21:26:49 13° SSE 21:29:50 45° E 21:33:25 10° NNE
ARGOS 3.7 21:29:07 17° SE 21:32:53 42° ENE 21:37:54 10° N
Cosmos 1782 2.8 21:34:04 10° N 21:38:02 61° E 21:40:31 21° SSE
Cosmos 1733 Rocket 4.1 21:38:50 22° ESE 21:40:10 26° E 21:43:45 10° NNE
Cosmos 1825 2.2 21:38:01 15° S 21:40:57 60° E 21:44:42 10° NNE
DNEPR-1 R/B 3.7 21:36:22 10° SSW 21:41:44 75° ESE 21:46:19 10° NE
Cosmos 1869 Rocket 3.9 21:42:48 10° SSW 21:47:06 67° W 21:51:27 10° N
ERS-1 Rocket 2.9 21:43:33 17° SSE 21:47:27 85° ENE 21:52:31 10° NNW
SL-08 RB Rocket 4.3 21:45:10 24° SE 21:47:33 42° ENE 21:51:57 10° N
Helios 1B rocket 3.6 21:46:08 10° N 21:50:03 44° WNW 21:53:57 10° SW
Cosmos 2084 3.6 21:48:39 10° NW 21:52:25 57° WSW 21:54:26 26° S
Cosmos 1862 3.5 21:55:13 31° SSE 21:56:49 51° E 22:00:41 10° NNE
Cosmos 1048 Rocket 4.0 21:51:58 10° NNW 21:57:18 75° ENE 22:00:12 27° SSE
ISS -1.6 21:55:16 10° W 21:58:08 28° NNW 22:01:01 10° NE
Lacrosse 4 Rocket 1.9 21:56:05 10° NNW 22:00:28 50° ENE 22:02:08 32° ESE
Cosmos 2221 Rocket 4.3 22:00:10 10° NNW 22:04:29 52° W 22:07:52 16° SSW
MetOp-A 4.2 22:03:35 21° S 22:07:14 76° WSW 22:12:36 10° NNW
Tiangong 2 2.7 22:05:30 10° W 22:08:09 24° SSW 22:08:09 24° SSW
deb Kosmos-1763 4.1 22:06:22 10° NNW 22:10:08 81° WSW 22:11:15 44° S
Terra 2.9 22:12:01 26° E 22:13:09 29° ENE 22:17:13 10° N
USA 215 3.2 22:09:49 28° SE 22:13:38 84° NE 22:20:14 10° NW
Cosmos 1943 Rocket 2.6 22:10:38 10° SSW 22:16:10 65° WNW 22:21:43 10° NNE
Cosmos 1340 2.8 22:13:31 10° NNW 22:17:17 70° W 22:18:28 41° SSW
DMSP B5D2-2 4.3 22:13:02 10° NNE 22:18:04 47° E 22:19:27 38° SE
Cosmos 1674 Rocket 3.9 22:13:55 10° N 22:18:04 44° E 22:18:42 41° ESE
Cosmos 2251 Rocket 4.5 22:15:18 10° N 22:19:59 32° ENE 22:21:25 28° E
SPOT 1/Viking Rocket 3.5 22:22:10 38° SSE 22:24:12 79° ENE 22:29:26 10° N
SPOT 5 3.3 22:26:40 31° S 22:29:16 70° WSW 22:34:35 10° NNW
H-2A R/B 3.4 22:31:07 24° ENE 22:31:07 24° ENE 22:34:26 10° NNE
Cosmos 1606 4.4 22:28:52 10° NNW 22:32:08 28° W 22:33:58 19° SW
YAOGAN 11 4.5 22:31:48 38° SSW 22:33:24 63° WSW 22:37:53 10° NNW
Cosmos 1269 Rocket 4.5 22:28:25 10° NNW 22:33:35 56° WSW 22:35:48 32° SSW
Lacrosse 5 rocket 3.9 22:34:22 10° W 22:37:01 19° NNW 22:39:44 10° NNE
GEOS 3 Rocket 4.2 22:35:54 35° E 22:37:34 48° NE 22:42:36 10° NNW
Cosmos 2369 Rocket 4.4 22:34:06 10° WSW 22:38:45 26° NW 22:43:27 10° N
Cosmos 1092 Rocket 3.9 22:36:34 39° SSE 22:38:56 69° E 22:45:03 10° NNE
Nadezhda 4 Rocket 4.0 22:35:52 25° S 22:39:41 82° W 22:45:53 10° N
Okean 3 3.8 22:36:30 10° N 22:40:23 47° ENE 22:40:23 47° ENE
CENTAUR R/B 3.6 22:35:03 10° WSW 22:40:50 46° NW 22:47:26 10° NNE
IGS 5A 3.8 22:42:12 50° ENE 22:42:12 50° ENE 22:46:13 10° N
Cosmos 1833 4.4 22:40:23 10° NNW 22:46:06 64° WSW 22:47:58 41° S
Cosmos 1908 Rocket 3.5 22:52:48 73° E 22:52:48 73° E 22:57:13 10° NNE
Cosmos 2344 3.9 22:45:51 10° SW 22:53:27 68° NW 23:01:58 10° NNE
Cosmos 2297 Rocket 4.1 22:54:26 10° N 22:58:16 18° NE 23:00:02 16° ENE
H-2A ROCKET BODY 4.1 22:57:15 10° SW 22:58:45 18° SSW 22:58:45 18° SSW
Okean 2 Rocket 4.4 23:03:10 29° ENE 23:03:10 29° ENE 23:05:56 10° NNE
ATLAS 5 CENTAUR R/B 3.0 22:56:34 10° NW 23:02:26 47° WSW 23:04:14 38° SSW
Cosmos 1867 3.4 22:57:10 10° NNW 23:02:40 79° ENE 23:03:23 66° ESE
H-2A R/B 3.0 23:03:26 32° SW 23:05:16 42° W 23:10:21 10° NNW
Cosmos 494 Rocket 3.9 23:03:43 10° NNW 23:08:56 76° WSW 23:09:27 69° SSW
Cosmos 1656 Rocket 4.5 23:10:32 16° SW 23:14:36 47° WNW 23:19:56 10° NNE
deb Chang Zheng 4 4.1 23:11:08 10° NNE 23:14:41 53° NE 23:14:41 53° NE
Cosmos 1782 Rocket 3.9 23:20:55 60° NNE 23:20:55 60° NNE 23:24:33 10° N
CZ-4B R/B 3.7 23:20:52 10° NNE 23:25:02 57° NE 23:25:02 57° NE
Meteor 1-20 Rocket 4.1 23:26:09 76° SE 23:26:26 79° E 23:32:09 10° NNE
Sich 1 Rocket 4.2 23:27:16 49° W 23:27:19 49° W 23:31:38 10° N
Meteor 1-25 Rocket 4.2 23:31:47 72° SSW 23:32:23 84° W 23:38:15 10° N
ISS -0.3 23:34:28 10° NNW 23:35:27 11° N 23:36:26 10° N
Lacrosse 4 Rocket 3.9 23:36:09 10° WNW 23:38:29 15° W 23:38:29 15° W
Milstar 3 3.9 23:30:58 10° WSW 23:36:55 31° SW 23:36:55 31° SW
Cosmos 1975 Rocket 3.7 23:38:47 10° NNW 23:42:22 53° NW 23:42:22 53° NW
Cosmos 1655 Rocket 3.9 23:43:07 69° SW 23:43:53 80° W 23:50:09 10° N
Cosmos 1812 4.3 23:41:09 10° NNW 23:43:38 33° NW 23:43:38 33° NW
ALOS 2 4.3 23:47:34 25° NE 23:47:34 25° NE 23:50:19 10° N
CZ-2C R/B 3.5 23:42:24 10° NNE 23:46:00 36° ENE 23:46:00 36° ENE
ATLAS CENTAUR R/B 2.9 23:48:33 33° NNW 23:48:33 33° NNW 23:51:31 10° NNE
Cosmos 2227 Rocket 2.6 23:42:48 10° NNW 23:48:20 52° ENE 23:48:21 52° ENE
Terra 3.3 23:50:55 28° W 23:50:55 28° W 23:54:55 10° NW
Cosmos 2219 3.7 23:48:47 10° NW 23:54:13 48° WSW 23:54:13 48° WSW
